Total_Precipitation_Accumulation
2.19 2.63 3.31 4.30 4.78 5.46 5.39 4.97 4.68 4.47 4.38 4.30 4.29 4.31 4.39 4.53 4.65 4.57 4.34 4.27 4.17 4.24 4.44 4.22 4.17 3.98 3.93 4.00 4.00 3.86 3.76 3.56 3.46 3.35 2.96 2.46 2.05 1.90 1.79 1.81 1.87 1.81 1.75
2.30 2.94 3.45 4.05 4.43 4.55 4.76 5.05 5.05 4.98 4.71 4.60 4.87 5.28 5.49 5.37 5.39 5.32 5.24 5.06 4.91 4.88 4.76 4.66 4.36 4.17 4.06 3.92 3.83 3.73 3.65 3.41 3.39 3.43 3.32 2.87 2.51 2.05 1.63 1.73 1.76 1.72 1.78
2.04 2.70 3.24 3.68 4.19 4.51 4.56 4.82 4.95 5.13 5.37 5.52 5.65 6.01 6.27 6.09 5.83 5.46 5.29 5.06 4.78 4.72 4.58 4.49 4.29 4.18 4.01 3.83 3.78 3.72 3.64 3.47 3.40 3.42 3.54 3.31 2.78 2.25 1.87 1.72 1.69 1.73 1.79
2.02 2.38 2.82 3.14 3.55 3.85 4.14 4.51 4.73 4.94 5.48 6.20 6.48 6.51 6.57 6.38 6.02 5.70 5.38 4.98 4.64 4.39 4.24 4.28 4.21 4.08 3.86 3.69 3.42 3.39 3.48 3.62 3.41 3.28 3.06 2.90 2.64 2.51 2.23 1.96 1.83 1.74 1.71
1.99 2.15 2.26 2.63 3.15 3.40 3.64 4.10 4.51 4.98 5.59 6.12 6.46 6.67 6.56 6.30 6.00 5.54 5.18 4.79 4.43 4.08 3.81 3.79 3.75 3.59 3.39 3.26 3.10 3.06 3.12 3.22 3.18 3.14 3.01 2.87 2.68 2.45 2.36 2.17 1.97 1.88 1.74
1.84 1.94 2.12 2.35 2.66 2.99 3.27 3.57 4.10 4.77 5.20 5.56 5.88 6.05 6.15 6.03 5.69 5.21 4.91 4.58 4.20 3.87 3.57 3.24 3.18 3.14 2.97 2.76 2.72 2.72 2.71 2.78 2.83 2.89 2.80 2.63 2.55 2.48 2.47 2.32 2.12 2.03 1.89
1.70 1.96 2.08 2.27 2.52 2.81 3.17 3.49 3.89 4.43 4.73 4.83 4.99 5.28 5.47 5.45 5.30 5.07 4.73 4.33 3.82 3.34 3.10 2.88 2.75 2.66 2.59 2.49 2.43 2.44 2.32 2.27 2.33 2.33 2.42 2.42 2.33 2.22 2.31 2.38 2.26 2.06 1.92
1.92 2.01 2.04 2.20 2.53 2.72 2.88 3.25 3.49 4.01 4.28 4.16 4.27 4.56 4.77 4.73 4.57 4.35 3.90 3.49 3.12 2.82 2.61 2.52 2.32 2.10 1.97 1.91 1.99 2.04 2.01 1.98 1.96 1.91 2.11 2.18 2.14 2.10 2.11 2.16 2.33 2.29 2.07
2.01 2.08 1.99 2.07 2.29 2.53 2.70 2.84 3.01 3.40 3.67 3.63 3.66 3.69 3.69 3.71 3.60 3.39 3.08 2.73 2.46 2.23 2.13 2.05 1.98 1.88 1.77 1.70 1.70 1.74 1.82 1.82 1.76 1.75 1.85 1.87 1.84 1.85 1.89 1.97 2.14 2.36 2.28
1.80 1.88 1.93 2.02 1.93 2.00 2.31 2.55 2.61 2.77 2.90 2.89 2.88 2.86 2.91 2.99 2.89 2.61 2.31 2.17 2.07 1.91 1.78 1.71 1.67 1.67 1.63 1.62 1.68 1.66 1.67 1.74 1.66 1.61 1.59 1.57 1.53 1.61 1.64 1.73 1.86 2.04 2.21
1.68 1.79 1.88 1.92 1.79 1.70 1.82 2.07 2.27 2.36 2.47 2.57 2.58 2.45 2.38 2.30 2.23 2.09 1.89 1.86 1.81 1.68 1.57 1.49 1.44 1.41 1.44 1.45 1.50 1.47 1.42 1.38 1.34 1.28 1.26 1.29 1.37 1.50 1.49 1.52 1.65 1.87 2.08
1.81 1.86 2.01 1.92 1.79 1.80 1.80 1.83 1.97 2.08 2.16 2.19 2.30 2.31 2.19 1.99 1.88 1.80 1.72 1.62 1.55 1.50 1.44 1.31 1.25 1.22 1.18 1.17 1.17 1.20 1.22 1.21 1.15 1.17 1.22 1.23 1.27 1.37 1.43 1.49 1.55 1.71 1.97
2.10 2.05 2.05 1.95 1.85 1.83 1.73 1.63 1.69 1.80 1.87 1.94 1.98 1.96 1.88 1.76 1.65 1.62 1.62 1.49 1.41 1.35 1.29 1.23 1.19 1.13 1.12 1.06 1.02 1.03 1.09 1.09 1.06 1.11 1.17 1.22 1.39 1.40 1.43 1.50 1.53 1.64 1.77
2.20 2.14 2.08 2.06 1.98 1.90 1.75 1.62 1.60 1.56 1.51 1.61 1.72 1.73 1.69 1.64 1.55 1.43 1.42 1.39 1.35 1.30 1.26 1.23 1.14 1.09 1.05 1.03 1.00 0.99 1.03 1.05 1.04 1.10 1.17 1.23 1.37 1.44 1.50 1.51 1.59 1.67 1.81
2.30 2.23 2.26 2.18 2.16 2.12 1.97 1.83 1.71 1.60 1.52 1.50 1.48 1.55 1.66 1.65 1.57 1.50 1.46 1.41 1.32 1.22 1.21 1.20 1.13 1.10 1.03 0.96 0.96 0.96 0.98 1.06 1.06 1.04 1.06 1.11 1.21 1.32 1.33 1.24 1.35 1.55 1.80
2.37 2.41 2.51 2.45 2.39 2.35 2.16 2.00 1.86 1.66 1.53 1.51 1.49 1.51 1.58 1.57 1.51 1.48 1.42 1.37 1.32 1.29 1.25 1.20 1.14 1.08 0.86 0.92 0.94 0.93 1.00 1.06 1.06 1.04 1.03 0.98 0.96 0.95 0.97 1.02 1.09 1.27 1.57
2.65 2.71 2.66 2.63 2.53 2.44 2.42 2.32 2.08 1.85 1.76 1.65 1.54 1.52 1.49 1.43 1.40 1.29 1.26 1.32 1.33 1.30 1.22 1.17 1.16 1.09 0.96 0.93 0.86 0.88 0.99 1.08 1.14 1.18 1.14 0.90 0.78 0.89 0.94 0.99 1.05 1.17 1.36
2.53 2.62 2.58 2.59 2.53 2.42 2.32 2.26 2.12 1.96 1.76 1.64 1.51 1.42 1.41 1.38 1.38 1.34 1.31 1.34 1.35 1.28 1.28 1.25 1.21 1.19 1.04 0.94 0.83 0.87 0.95 1.06 1.08 1.09 1.13 1.12 1.01 0.94 1.03 1.10 1.18 1.29 1.41
2.39 2.48 2.57 2.60 2.57 2.46 2.24 2.10 2.01 1.93 1.84 1.65 1.43 1.31 1.32 1.29 1.29 1.32 1.32 1.31 1.31 1.25 1.21 1.18 1.20 1.24 1.18 1.02 0.89 0.83 0.87 0.98 1.00 0.96 0.94 0.93 0.96 1.05 1.22 1.33 1.54 1.66 1.74
2.34 2.47 2.58 2.63 2.60 2.53 2.17 2.00 1.87 1.72 1.57 1.38 1.27 1.24 1.25 1.18 1.16 1.23 1.27 1.27 1.28 1.23 1.18 1.15 1.19 1.18 1.08 0.91 0.77 0.75 0.77 0.91 0.96 1.02 0.97 0.88 0.83 0.98 1.16 1.39 1.72 1.87 1.93
2.32 2.42 2.45 2.47 2.41 2.36 2.09 1.95 1.76 1.59 1.33 1.14 1.10 1.16 1.17 1.11 1.06 1.10 1.16 1.22 1.18 1.18 1.18 1.10 1.09 1.02 0.87 0.78 0.68 0.67 0.69 0.80 0.92 0.98 1.03 0.99 0.92 0.97 1.20 1.41 1.62 1.78 1.82
2.13 2.24 2.28 2.26 2.15 2.04 1.89 1.78 1.62 1.36 1.16 1.05 1.03 1.10 1.16 0.99 0.90 0.99 1.00 1.05 1.18 1.14 1.12 1.13 1.03 0.88 0.81 0.69 0.64 0.64 0.63 0.66 0.82 1.00 1.02 1.06 1.04 1.08 1.28 1.43 1.67 1.87 1.95
1.89 1.96 1.88 1.77 1.77 1.70 1.60 1.50 1.36 1.18 1.05 1.03 1.07 1.08 1.08 1.02 0.98 1.02 1.00 1.02 1.10 1.11 1.03 1.02 0.97 0.83 0.80 0.72 0.67 0.66 0.69 0.72 0.79 0.95 1.03 1.04 1.05 1.16 1.44 1.61 1.80 1.97 2.08
1.55 1.62 1.61 1.54 1.50 1.43 1.34 1.24 1.10 1.06 1.07 1.07 1.08 1.11 1.09 1.01 0.98 1.02 0.95 0.94 0.93 0.96 0.92 0.90 0.90 0.86 0.82 0.72 0.67 0.71 0.76 0.79 0.81 0.91 1.06 1.15 1.18 1.32 1.61 1.82 2.01 2.09 2.03
1.25 1.31 1.40 1.41 1.28 1.18 1.13 1.08 0.98 0.98 1.07 1.11 1.06 1.05 0.97 0.95 0.96 0.93 0.81 0.75 0.71 0.74 0.82 0.82 0.80 0.78 0.74 0.70 0.72 0.70 0.70 0.73 0.75 0.85 1.04 1.21 1.32 1.48 1.69 1.88 1.96 1.96 1.87
1.11 1.21 1.28 1.24 1.18 1.10 1.04 0.98 0.88 0.89 1.01 1.06 1.02 0.94 0.88 0.86 0.83 0.86 0.80 0.71 0.65 0.66 0.66 0.70 0.66 0.64 0.70 0.72 0.69 0.66 0.69 0.72 0.77 0.84 1.05 1.22 1.31 1.47 1.66 1.82 1.83 1.77 1.69